Theta_e
319 323 330 335 338 337 337 338 341 339 339 338 338 338 339 341 340 340 343 339 335 333 334 337 332 325 321 320 320 322 321 321
314 316 319 322 328 331 333 333 336 337 337 333 332 331 332 333 336 338 339 338 337 335 330 333 331 324 320 321 320 320 319 321
310 312 313 315 317 320 322 327 332 335 336 337 333 332 333 332 333 332 333 333 332 329 328 329 331 326 322 321 320 318 318 319
307 308 310 312 313 315 316 319 326 333 335 338 333 329 326 330 331 331 331 331 330 329 329 330 331 329 323 322 322 320 316 317
306 307 308 310 311 314 314 315 317 321 332 333 335 331 329 332 334 335 333 331 331 329 328 327 327 327 326 324 322 322 319 315
305 305 306 307 311 312 314 313 313 316 318 324 327 328 330 331 331 332 332 333 329 328 327 325 324 321 322 322 322 324 322 318
302 303 304 305 308 309 312 312 311 314 315 317 318 320 323 323 324 326 327 329 330 327 325 324 321 319 319 320 319 321 324 322
299 299 300 302 304 306 308 308 308 311 313 314 315 316 318 319 321 322 322 322 322 323 324 322 318 318 317 317 317 317 319 322
298 299 300 301 302 304 305 305 305 307 310 312 314 316 315 316 318 320 321 321 322 323 322 321 319 319 315 313 313 313 316 316
298 299 300 301 302 303 304 306 306 307 308 310 312 314 315 315 316 318 319 320 320 322 320 317 317 316 313 309 308 309 309 312
298 299 299 301 302 303 305 305 305 306 308 309 310 312 313 314 315 315 315 316 317 316 314 312 310 309 309 305 305 304 304 307
297 299 300 301 302 303 304 305 305 307 308 309 310 311 313 313 313 314 314 313 312 310 309 308 306 305 303 303 303 302 302 302
298 299 300 301 302 303 303 305 305 306 307 308 309 310 311 312 311 311 310 307 306 305 304 303 303 303 304 303 303 302 301 301
297 299 300 300 301 303 304 305 306 307 308 308 308 310 310 309 307 307 306 307 305 302 300 300 298 298 298 298 299 298 299 298
297 299 300 301 302 303 304 306 308 309 309 307 307 307 304 303 302 302 302 302 302 302 300 299 298 296 296 295 295 294 294 294
296 298 299 300 302 303 304 306 308 309 306 306 303 300 300 300 299 298 299 299 297 296 295 295 295 294 293 292 291 290 290 289
296 297 298 298 300 302 304 306 307 307 305 300 299 298 298 297 296 295 296 294 294 294 293 293 291 291 290 290 291 289 289 289
295 296 297 298 300 303 304 305 306 303 299 298 297 297 296 295 294 294 291 291 292 290 291 290 288 289 289 288 286 285 286 285
295 297 298 299 301 302 305 305 302 298 298 297 297 297 295 293 292 291 290 290 289 289 288 288 287 287 287 286 286 286 285 285
Wind_Speed
10 12 11 9 7 4 4 5 3 6 7 7 6 5 5 8 6 8 11 11 12 10 9 12 11 10 10 10 11 10 9 9
10 12 13 13 13 10 8 4 3 4 5 4 4 6 6 6 5 7 8 7 12 14 9 10 12 12 13 14 12 13 11 10
10 12 12 13 12 11 11 9 7 3 5 5 4 3 4 6 5 6 7 8 9 9 11 10 15 12 14 14 15 12 11 12
10 10 11 10 11 11 11 10 10 9 4 4 3 3 2 4 7 8 11 12 12 12 12 12 12 13 13 16 16 18 14 14
8 8 9 8 8 7 9 9 10 10 10 3 6 6 7 6 7 7 9 13 14 13 13 13 13 11 13 16 16 16 15 16
8 7 6 8 8 9 9 9 9 9 8 7 6 8 9 7 8 11 11 10 12 13 13 12 12 11 14 15 17 18 15 14
6 5 4 7 7 8 8 10 9 9 10 9 8 8 9 8 9 8 8 7 7 11 12 12 12 13 13 13 16 18 17 16
5 5 6 6 7 7 6 8 9 9 9 9 10 10 10 11 10 8 8 6 6 10 12 13 10 13 13 13 15 17 19 17
4 4 6 7 7 8 9 10 11 10 9 10 9 10 7 8 9 9 9 9 8 6 8 13 13 14 12 12 12 14 16 16
2 3 5 6 7 7 7 8 9 10 10 9 11 10 10 9 10 10 9 11 10 11 10 10 11 12 13 13 11 13 12 14
2 4 5 6 7 7 7 9 11 11 10 10 9 10 10 9 9 10 10 11 12 11 11 12 10 13 13 13 12 12 14 12
5 6 7 7 7 8 9 10 12 13 12 11 11 11 10 9 8 8 8 10 9 10 11 10 9 11 12 13 14 14 16 14
7 7 8 10 10 12 13 13 15 14 12 12 12 11 11 9 8 7 8 9 7 7 7 6 7 8 11 14 14 13 17 16
6 6 7 9 10 11 13 14 14 13 13 13 11 10 8 8 7 7 8 8 7 6 6 7 6 5 5 6 9 10 11 11
7 7 7 9 10 12 13 13 13 14 14 11 10 7 6 5 5 5 5 6 7 7 6 6 5 3 3 2 3 1 5 7
7 9 9 11 12 13 13 13 13 13 10 7 5 2 4 2 2 4 4 5 4 4 4 5 4 4 4 7 8 9 6 11
5 8 9 11 13 13 13 13 14 10 7 2 4 4 3 2 1 1 2 3 4 4 4 5 7 6 10 12 8 7 6 8
5 8 10 11 13 13 13 13 11 6 3 4 5 5 4 3 3 2 3 2 3 4 5 5 6 5 12 11 11 6 7 7
5 7 9 12 13 15 12 9 8 4 4 5 5 5 5 5 5 4 3 2 3 3 4 4 4 3 10 14 15 8 10 9
Wind_Direction
43 40 42 53 71 66 14 340 259 228 224 213 214 230 237 245 237 218 222 219 205 187 231 215 203 205 199 199 199 196 194 183
64 56 52 58 55 62 61 69 274 245 214 184 206 220 222 235 244 243 240 224 216 214 212 220 203 211 207 194 193 193 193 180
78 64 56 53 54 47 50 45 33 348 219 193 206 209 227 226 223 230 222 221 224 212 206 216 208 211 205 198 197 190 196 182
90 78 64 54 45 35 38 32 34 31 47 192 134 140 195 223 227 222 221 206 208 212 214 229 217 209 201 199 201 195 190 187
97 84 70 60 44 36 29 24 25 28 10 353 220 256 262 253 250 239 236 224 223 214 222 218 221 209 213 202 199 200 199 196
106 81 63 51 26 15 10 8 16 17 13 4 334 312 307 323 310 293 267 246 224 223 217 221 217 213 220 205 202 205 205 201
109 79 39 28 18 2 353 349 351 355 351 344 332 314 301 293 290 292 279 274 256 240 228 222 219 221 221 223 209 207 209 208
84 48 23 4 354 343 338 336 331 331 326 320 318 310 302 290 286 283 280 267 239 244 238 236 222 220 222 217 218 211 209 211
70 23 357 346 335 324 321 320 316 316 308 301 296 292 293 295 290 288 278 275 278 272 249 239 235 234 223 220 219 216 212 210
64 346 338 323 326 325 317 303 299 300 299 290 286 289 289 288 289 292 291 288 283 278 259 246 238 237 224 213 214 216 210 207
319 320 331 330 331 321 309 302 303 303 289 283 281 279 277 279 282 285 290 292 287 281 266 255 237 226 219 210 214 210 204 201
310 330 338 325 316 319 316 313 313 311 304 291 276 269 267 273 279 291 301 297 282 265 262 253 235 227 217 214 214 203 203 198
339 341 341 339 336 333 324 318 310 303 299 286 270 259 261 265 280 302 310 307 312 295 282 258 246 244 232 223 217 208 199 194
330 333 328 323 323 318 314 306 304 297 293 283 263 249 253 273 304 323 323 319 316 312 293 276 266 243 250 261 251 221 208 191
316 312 313 313 313 307 308 308 306 300 297 282 268 272 269 293 324 333 329 330 325 334 328 310 279 246 216 173 123 42 120 113
316 317 323 316 312 314 311 314 312 307 293 267 270 237 264 316 329 335 344 343 6 29 32 33 41 51 78 98 91 95 74 78
327 324 328 330 322 313 316 315 317 309 274 180 165 200 182 172 135 45 30 30 43 84 71 56 50 53 73 66 68 71 75 95
340 335 342 330 330 319 308 324 315 298 190 177 181 182 173 134 83 78 62 83 99 85 85 87 80 58 82 85 82 81 77 75
327 328 328 340 326 322 310 321 321 265 195 200 193 179 171 147 149 126 150 128 128 110 108 103 98 95 109 102 88 88 88 73